RYR14KP LIMC-LICA

Flight info

Callsign RYR14KP
Flight time 1h 20m
Altitude 37000
Route ROBAS DCT LOGDI DCT EKDIR DCT KUGIX DCT EVINO DCT ARBUM
Aircraft B738/M-SDE2E3FGHIRWXY/LB1

Departure

Time 2026-04-21 00:08
Airport Milan Malpensa International Airport (LIMC)

Arrival

Time 2026-04-21 01:28
Airport Lamezia Terme Sant'Eufemia International Airport (LICA)
Time Latitude Longitude Altitude Speed Heading
2026-04-20 23:31 45.62771 8.71904 750 ft 0 kts 80°
2026-04-20 23:57 45.62773 8.71917 750 ft 6 kts 80°
2026-04-20 23:57 45.62778 8.71960 751 ft 0 kts 80°
2026-04-20 23:58 45.62733 8.72009 751 ft 18 kts 166°
2026-04-20 23:58 45.62570 8.72053 751 ft 28 kts 169°
2026-04-20 23:58 45.62379 8.72106 751 ft 27 kts 169°
2026-04-20 23:59 45.62200 8.72155 750 ft 25 kts 169°
2026-04-20 23:59 45.62032 8.72201 752 ft 24 kts 169°
2026-04-20 23:59 45.61875 8.72245 749 ft 23 kts 169°
2026-04-20 23:59 45.61723 8.72286 751 ft 22 kts 168°
2026-04-21 00:00 45.61571 8.72328 752 ft 23 kts 169°
2026-04-21 00:00 45.61416 8.72385 748 ft 23 kts 146°
2026-04-21 00:00 45.61292 8.72512 749 ft 22 kts 167°
2026-04-21 00:00 45.61143 8.72558 750 ft 22 kts 169°
2026-04-21 00:01 45.61083 8.72714 746 ft 21 kts 80°
2026-04-21 00:01 45.61114 8.72939 749 ft 24 kts 79°
2026-04-21 00:01 45.61203 8.73118 749 ft 23 kts 33°
2026-04-21 00:01 45.61344 8.73250 750 ft 26 kts 28°
2026-04-21 00:02 45.61524 8.73234 750 ft 28 kts 349°
2026-04-21 00:02 45.61718 8.73180 750 ft 29 kts 349°
2026-04-21 00:02 45.61908 8.73128 749 ft 27 kts 349°
2026-04-21 00:02 45.62086 8.73079 752 ft 25 kts 349°
2026-04-21 00:03 45.62251 8.73033 751 ft 23 kts 349°
2026-04-21 00:03 45.62426 8.72986 751 ft 30 kts 349°
2026-04-21 00:03 45.62620 8.72932 748 ft 28 kts 349°
2026-04-21 00:03 45.62803 8.72882 750 ft 26 kts 349°
2026-04-21 00:04 45.62986 8.72831 751 ft 29 kts 349°
2026-04-21 00:04 45.63188 8.72776 751 ft 29 kts 349°
2026-04-21 00:04 45.63380 8.72723 750 ft 27 kts 349°
2026-04-21 00:04 45.63558 8.72676 750 ft 26 kts 349°
2026-04-21 00:05 45.63729 8.72627 750 ft 24 kts 349°
2026-04-21 00:05 45.63888 8.72594 749 ft 23 kts 10°
2026-04-21 00:05 45.63934 8.72770 747 ft 19 kts 44°
2026-04-21 00:05 45.64051 8.72756 748 ft 21 kts 348°
2026-04-21 00:06 45.64228 8.72709 749 ft 29 kts 349°
2026-04-21 00:06 45.64422 8.72673 749 ft 27 kts 356°
2026-04-21 00:06 45.64601 8.72625 751 ft 26 kts 348°
2026-04-21 00:06 45.64768 8.72583 750 ft 23 kts 352°
2026-04-21 00:07 45.64898 8.72682 751 ft 22 kts 35°
2026-04-21 00:07 45.64924 8.72812 751 ft 14 kts 143°
2026-04-21 00:07 45.64763 8.72867 750 ft 48 kts 169°
2026-04-21 00:07 45.64199 8.73023 742 ft 115 kts 168°
2026-04-21 00:08 45.63230 8.73301 796 ft 162 kts 168°
2026-04-21 00:08 45.62103 8.73606 1419 ft 165 kts 169°
2026-04-21 00:08 45.60955 8.73889 2095 ft 169 kts 171°
2026-04-21 00:08 45.59782 8.73833 2703 ft 174 kts 206°
2026-04-21 00:09 45.58691 8.73120 3305 ft 176 kts 185°
2026-04-21 00:09 45.57476 8.73253 3903 ft 176 kts 174°
2026-04-21 00:09 45.56240 8.73353 4513 ft 179 kts 178°
2026-04-21 00:09 45.54958 8.73400 4954 ft 195 kts 179°
2026-04-21 00:10 45.53516 8.73421 5155 ft 218 kts 179°
2026-04-21 00:10 45.51930 8.73490 5312 ft 239 kts 170°
2026-04-21 00:10 45.50383 8.74492 5607 ft 252 kts 142°
2026-04-21 00:10 45.49007 8.76093 6256 ft 256 kts 139°
2026-04-21 00:11 45.47625 8.77697 7013 ft 258 kts 148°
2026-04-21 00:11 45.45911 8.78589 7458 ft 273 kts 170°
2026-04-21 00:11 45.44065 8.79397 7995 ft 284 kts 150°
2026-04-21 00:11 45.42496 8.81148 8684 ft 291 kts 138°
2026-04-21 00:12 45.41269 8.83480 9325 ft 301 kts 112°
2026-04-21 00:12 45.40586 8.86301 10113 ft 304 kts 108°
2026-04-21 00:12 45.39915 8.89245 10440 ft 325 kts 108°
2026-04-21 00:12 45.39187 8.92384 10835 ft 341 kts 108°
2026-04-21 00:13 45.38427 8.95613 11500 ft 347 kts 109°
2026-04-21 00:13 45.37730 8.98536 12163 ft 351 kts 109°
2026-04-21 00:13 45.36934 9.01837 12949 ft 355 kts 109°
2026-04-21 00:13 45.36123 9.05174 13733 ft 360 kts 109°
2026-04-21 00:14 45.35298 9.08555 14434 ft 364 kts 109°
2026-04-21 00:14 45.34459 9.11977 15157 ft 369 kts 109°
2026-04-21 00:14 45.33607 9.15444 15879 ft 374 kts 109°
2026-04-21 00:14 45.32741 9.18957 16591 ft 379 kts 109°
2026-04-21 00:15 45.31864 9.22515 17293 ft 385 kts 109°
2026-04-21 00:15 45.30971 9.26126 17988 ft 390 kts 109°
2026-04-21 00:15 45.30066 9.29783 18626 ft 395 kts 109°
2026-04-21 00:15 45.29149 9.33482 19274 ft 398 kts 109°
2026-04-21 00:16 45.28225 9.37202 19923 ft 402 kts 109°
2026-04-21 00:16 45.27291 9.40960 20545 ft 406 kts 109°
2026-04-21 00:16 45.26342 9.44768 21139 ft 411 kts 109°
2026-04-21 00:16 45.25384 9.48608 21733 ft 415 kts 109°
2026-04-21 00:17 45.24414 9.52490 22319 ft 420 kts 109°
2026-04-21 00:17 45.23433 9.56411 22914 ft 424 kts 109°
2026-04-21 00:17 45.22453 9.60320 23445 ft 428 kts 110°
2026-04-21 00:17 45.21450 9.64317 23924 ft 432 kts 110°
2026-04-21 00:18 45.20434 9.68350 24410 ft 436 kts 110°
2026-04-21 00:18 45.19064 9.72176 24829 ft 438 kts 129°
2026-04-21 00:18 45.16930 9.75224 25300 ft 435 kts 147°
2026-04-21 00:18 45.14459 9.77687 25777 ft 436 kts 149°
2026-04-21 00:19 45.11935 9.80107 26200 ft 440 kts 149°
2026-04-21 00:19 45.09385 9.82537 26614 ft 444 kts 149°
2026-04-21 00:19 45.06816 9.85002 27047 ft 448 kts 149°
2026-04-21 00:19 45.04236 9.87499 27479 ft 451 kts 149°
2026-04-21 00:20 45.01643 9.90026 27909 ft 455 kts 149°
2026-04-21 00:20 44.99030 9.92583 28314 ft 458 kts 149°
2026-04-21 00:20 44.96401 9.95157 28715 ft 462 kts 149°
2026-04-21 00:20 44.93755 9.97748 29100 ft 465 kts 149°
2026-04-21 00:21 44.91086 10.00357 29490 ft 468 kts 149°
2026-04-21 00:21 44.88401 10.02978 29866 ft 471 kts 149°
2026-04-21 00:21 44.85696 10.05615 30204 ft 474 kts 149°
2026-04-21 00:21 44.82978 10.08261 30530 ft 476 kts 149°
2026-04-21 00:22 44.80247 10.10917 30883 ft 478 kts 149°
2026-04-21 00:22 44.77508 10.13579 31219 ft 479 kts 149°
2026-04-21 00:22 44.74760 10.16246 31540 ft 481 kts 149°
2026-04-21 00:22 44.71998 10.18921 31805 ft 483 kts 149°
2026-04-21 00:23 44.69239 10.21628 32130 ft 485 kts 148°
2026-04-21 00:23 44.66493 10.24407 32433 ft 487 kts 148°
2026-04-21 00:23 44.63756 10.27220 32842 ft 486 kts 148°
2026-04-21 00:23 44.61036 10.30023 33329 ft 484 kts 148°
2026-04-21 00:24 44.58327 10.32807 33810 ft 482 kts 148°
2026-04-21 00:24 44.55621 10.35574 34156 ft 481 kts 148°
2026-04-21 00:24 44.52913 10.38330 34425 ft 482 kts 148°
2026-04-21 00:24 44.50194 10.41088 34661 ft 483 kts 148°
2026-04-21 00:25 44.47462 10.43854 34902 ft 485 kts 148°
2026-04-21 00:25 44.44764 10.46582 35203 ft 485 kts 148°
2026-04-21 00:25 44.42033 10.49342 35534 ft 484 kts 148°
2026-04-21 00:25 44.39309 10.52093 35826 ft 483 kts 148°
2026-04-21 00:26 44.36578 10.54846 36066 ft 484 kts 148°
2026-04-21 00:26 44.33844 10.57600 36351 ft 484 kts 148°
2026-04-21 00:26 44.31107 10.60353 36556 ft 486 kts 148°
2026-04-21 00:26 44.28356 10.63118 36745 ft 488 kts 148°
2026-04-21 00:27 44.25607 10.65879 37035 ft 487 kts 148°
2026-04-21 00:27 44.22864 10.68631 37332 ft 485 kts 148°
2026-04-21 00:27 44.20120 10.71379 37581 ft 486 kts 148°
2026-04-21 00:27 44.17375 10.74140 37755 ft 486 kts 148°
2026-04-21 00:28 44.14641 10.76899 37982 ft 486 kts 148°
2026-04-21 00:28 44.11902 10.79666 38194 ft 486 kts 148°
2026-04-21 00:28 44.09163 10.82432 38380 ft 487 kts 148°
2026-04-21 00:28 44.06425 10.85193 38701 ft 485 kts 148°
2026-04-21 00:29 44.03700 10.87938 38915 ft 483 kts 148°
2026-04-21 00:29 43.98225 10.93434 38974 ft 488 kts 148°
2026-04-21 00:30 43.92730 10.98938 38962 ft 485 kts 148°
2026-04-21 00:30 43.87280 11.04388 38950 ft 481 kts 148°
2026-04-21 00:31 43.81866 11.09787 38960 ft 478 kts 148°
2026-04-21 00:31 43.76483 11.15141 38964 ft 476 kts 148°
2026-04-21 00:32 43.71118 11.20465 38970 ft 475 kts 148°
2026-04-21 00:32 43.65744 11.25787 38948 ft 475 kts 148°
2026-04-21 00:33 43.61271 11.30209 38970 ft 477 kts 148°
2026-04-21 00:33 43.55862 11.35545 38977 ft 479 kts 148°
2026-04-21 00:34 43.49709 11.42132 38964 ft 484 kts 144°
2026-04-21 00:34 43.45339 11.47059 38970 ft 486 kts 144°
2026-04-21 00:35 43.40098 11.52953 38968 ft 487 kts 144°
2026-04-21 00:35 43.34829 11.58816 38970 ft 488 kts 144°
2026-04-21 00:36 43.29576 11.64620 38969 ft 488 kts 145°
2026-04-21 00:36 43.24282 11.70450 38969 ft 488 kts 145°
2026-04-21 00:37 43.19001 11.76255 38965 ft 485 kts 145°
2026-04-21 00:37 43.13743 11.82023 38973 ft 483 kts 145°
2026-04-21 00:38 43.08509 11.87751 38972 ft 481 kts 145°
2026-04-21 00:38 43.03298 11.93441 38974 ft 478 kts 145°
2026-04-21 00:39 42.98104 11.99100 38962 ft 476 kts 145°
2026-04-21 00:39 42.92933 12.04722 38980 ft 474 kts 145°
2026-04-21 00:40 42.87768 12.10323 38983 ft 474 kts 145°
2026-04-21 00:40 42.82599 12.15916 38982 ft 475 kts 146°
2026-04-21 00:41 42.77414 12.21515 38978 ft 476 kts 146°
2026-04-21 00:41 42.72211 12.27120 38985 ft 478 kts 145°
2026-04-21 00:42 42.66988 12.32736 38984 ft 480 kts 145°
2026-04-21 00:42 42.61739 12.38367 38983 ft 481 kts 145°
2026-04-21 00:43 42.56479 12.43997 38988 ft 482 kts 146°
2026-04-21 00:43 42.51210 12.49626 38985 ft 482 kts 146°
2026-04-21 00:44 42.45943 12.55240 38987 ft 481 kts 146°
2026-04-21 00:44 42.40677 12.60839 38981 ft 481 kts 146°
2026-04-21 00:45 42.32801 12.69193 38999 ft 479 kts 146°
2026-04-21 00:45 42.27561 12.74735 38984 ft 477 kts 146°
2026-04-21 00:46 42.22374 12.80209 39001 ft 476 kts 146°
2026-04-21 00:46 42.17166 12.85693 38993 ft 474 kts 146°
2026-04-21 00:47 42.11969 12.91153 39001 ft 473 kts 146°
2026-04-21 00:47 42.06777 12.96596 39004 ft 473 kts 146°
2026-04-21 00:48 42.01586 13.02027 38993 ft 472 kts 146°
2026-04-21 00:48 41.96400 13.07442 39006 ft 472 kts 146°
2026-04-21 00:49 41.91200 13.12859 39012 ft 473 kts 146°
2026-04-21 00:49 41.85996 13.18269 39015 ft 473 kts 146°
2026-04-21 00:50 41.80796 13.23665 39009 ft 473 kts 147°
2026-04-21 00:50 41.75585 13.29060 39008 ft 474 kts 147°
2026-04-21 00:51 41.70365 13.34452 39010 ft 474 kts 147°
2026-04-21 00:51 41.65141 13.39838 39012 ft 474 kts 147°
2026-04-21 00:52 41.59907 13.45222 38996 ft 475 kts 147°
2026-04-21 00:52 41.54673 13.50596 39018 ft 475 kts 147°
2026-04-21 00:53 41.49431 13.55966 39020 ft 475 kts 147°
2026-04-21 00:53 41.44183 13.61331 39014 ft 475 kts 147°
2026-04-21 00:54 41.38931 13.66688 39011 ft 476 kts 147°
2026-04-21 00:54 41.33675 13.72040 38996 ft 476 kts 147°
2026-04-21 00:55 41.28414 13.77384 39009 ft 476 kts 147°
2026-04-21 00:55 41.23191 13.82680 39013 ft 475 kts 147°
2026-04-21 00:56 41.17932 13.88000 39010 ft 475 kts 147°
2026-04-21 00:56 41.12668 13.93315 38998 ft 475 kts 147°
2026-04-21 00:57 41.07405 13.98618 38883 ft 477 kts 147°
2026-04-21 00:57 41.04744 14.01291 38351 ft 481 kts 147°
2026-04-21 00:57 41.02085 14.03964 37798 ft 479 kts 147°
2026-04-21 00:58 40.99439 14.06622 37294 ft 476 kts 147°
2026-04-21 00:58 40.96813 14.09259 36943 ft 471 kts 147°
2026-04-21 00:58 40.94214 14.11865 36529 ft 467 kts 147°
2026-04-21 00:58 40.91637 14.14445 36165 ft 463 kts 147°
2026-04-21 00:59 40.89075 14.17008 35769 ft 460 kts 147°
2026-04-21 00:59 40.86530 14.19550 35390 ft 457 kts 147°
2026-04-21 00:59 40.84003 14.22071 35014 ft 454 kts 147°
2026-04-21 00:59 40.81489 14.24576 34640 ft 452 kts 147°
2026-04-21 01:00 40.78989 14.27065 34248 ft 449 kts 147°
2026-04-21 01:00 40.76496 14.29545 33833 ft 447 kts 147°
2026-04-21 01:00 40.74016 14.32009 33406 ft 445 kts 147°
2026-04-21 01:00 40.71551 14.34458 33015 ft 442 kts 147°
2026-04-21 01:01 40.69101 14.36889 32634 ft 439 kts 147°
2026-04-21 01:01 40.66669 14.39300 32262 ft 436 kts 147°
2026-04-21 01:01 40.64249 14.41696 31878 ft 433 kts 147°
2026-04-21 01:01 40.61846 14.44074 31526 ft 431 kts 147°
2026-04-21 01:02 40.59458 14.46434 31162 ft 428 kts 147°
2026-04-21 01:02 40.57082 14.48780 30811 ft 426 kts 147°
2026-04-21 01:02 40.54722 14.51109 30463 ft 423 kts 147°
2026-04-21 01:02 40.52373 14.53424 30107 ft 421 kts 147°
2026-04-21 01:03 40.50036 14.55725 29699 ft 418 kts 147°
2026-04-21 01:03 40.47717 14.58007 29306 ft 415 kts 147°
2026-04-21 01:03 40.45445 14.60242 28930 ft 411 kts 147°
2026-04-21 01:03 40.43132 14.62513 28565 ft 408 kts 147°
2026-04-21 01:04 40.40898 14.64706 28190 ft 405 kts 147°
2026-04-21 01:04 40.38622 14.66938 27840 ft 401 kts 147°
2026-04-21 01:04 40.36393 14.69122 27466 ft 398 kts 147°
2026-04-21 01:04 40.34182 14.71286 27109 ft 396 kts 147°
2026-04-21 01:05 40.32010 14.73410 26768 ft 393 kts 147°
2026-04-21 01:05 40.29825 14.75545 26416 ft 391 kts 147°
2026-04-21 01:05 40.27651 14.77667 26062 ft 389 kts 147°
2026-04-21 01:05 40.25489 14.79777 25719 ft 386 kts 147°
2026-04-21 01:06 40.23339 14.81873 25364 ft 384 kts 147°
2026-04-21 01:06 40.21198 14.83958 25021 ft 383 kts 147°
2026-04-21 01:06 40.19068 14.86031 24683 ft 381 kts 147°
2026-04-21 01:06 40.16948 14.88093 24343 ft 379 kts 147°
2026-04-21 01:07 40.14835 14.90146 23990 ft 377 kts 147°
2026-04-21 01:07 40.12734 14.92186 23663 ft 376 kts 147°
2026-04-21 01:07 40.10639 14.94218 23262 ft 375 kts 147°
2026-04-21 01:07 40.08551 14.96242 22883 ft 373 kts 147°
2026-04-21 01:08 40.06477 14.98252 22527 ft 370 kts 147°
2026-04-21 01:08 40.04418 15.00246 22177 ft 368 kts 147°
2026-04-21 01:08 40.02366 15.02231 21834 ft 365 kts 147°
2026-04-21 01:08 40.00332 15.04196 21501 ft 363 kts 147°
2026-04-21 01:09 39.98311 15.06148 21164 ft 360 kts 147°
2026-04-21 01:09 39.96304 15.08086 20840 ft 358 kts 147°
2026-04-21 01:09 39.94308 15.10010 20511 ft 356 kts 147°
2026-04-21 01:09 39.92322 15.11924 20185 ft 354 kts 147°
2026-04-21 01:10 39.90347 15.13826 19846 ft 352 kts 146°
2026-04-21 01:10 39.88385 15.15714 19526 ft 350 kts 146°
2026-04-21 01:10 39.86428 15.17595 19205 ft 348 kts 146°
2026-04-21 01:10 39.84484 15.19464 18885 ft 347 kts 146°
2026-04-21 01:11 39.82544 15.21326 18559 ft 346 kts 146°
2026-04-21 01:11 39.80614 15.23178 18232 ft 344 kts 146°
2026-04-21 01:11 39.78688 15.25025 17866 ft 343 kts 146°
2026-04-21 01:11 39.76774 15.26860 17519 ft 341 kts 146°
2026-04-21 01:12 39.74867 15.28687 17187 ft 339 kts 146°
2026-04-21 01:12 39.72974 15.30497 16868 ft 337 kts 146°
2026-04-21 01:12 39.71096 15.32304 16539 ft 336 kts 145°
2026-04-21 01:12 39.69291 15.34216 16220 ft 334 kts 142°
2026-04-21 01:13 39.67534 15.36188 15887 ft 333 kts 141°
2026-04-21 01:13 39.65818 15.38138 15583 ft 332 kts 141°
2026-04-21 01:13 39.64086 15.40104 15264 ft 330 kts 141°
2026-04-21 01:13 39.62357 15.42057 14948 ft 329 kts 141°
2026-04-21 01:14 39.60632 15.43996 14643 ft 327 kts 142°
2026-04-21 01:14 39.58914 15.45921 14323 ft 326 kts 142°
2026-04-21 01:14 39.57197 15.47839 14009 ft 325 kts 142°
2026-04-21 01:14 39.55486 15.49748 13680 ft 324 kts 142°
2026-04-21 01:15 39.53778 15.51649 13332 ft 323 kts 142°
2026-04-21 01:15 39.52078 15.53541 13002 ft 321 kts 142°
2026-04-21 01:15 39.50389 15.55419 12687 ft 319 kts 142°
2026-04-21 01:15 39.48708 15.57285 12369 ft 317 kts 142°
2026-04-21 01:16 39.47040 15.59137 12063 ft 315 kts 142°
2026-04-21 01:16 39.45381 15.60977 11758 ft 313 kts 142°
2026-04-21 01:16 39.43732 15.62806 11455 ft 311 kts 142°
2026-04-21 01:16 39.42091 15.64623 11156 ft 309 kts 141°
2026-04-21 01:17 39.40463 15.66425 10852 ft 307 kts 141°
2026-04-21 01:17 39.38844 15.68217 10555 ft 305 kts 141°
2026-04-21 01:17 39.37234 15.69998 10266 ft 303 kts 141°
2026-04-21 01:17 39.35642 15.71757 10080 ft 298 kts 141°
2026-04-21 01:18 39.34084 15.73479 9861 ft 294 kts 141°
2026-04-21 01:18 39.32536 15.75187 9556 ft 292 kts 141°
2026-04-21 01:18 39.30996 15.76886 9254 ft 290 kts 141°
2026-04-21 01:18 39.29466 15.78573 8982 ft 288 kts 141°
2026-04-21 01:19 39.27944 15.80249 8701 ft 286 kts 141°
2026-04-21 01:19 39.26426 15.81900 8438 ft 284 kts 142°
2026-04-21 01:19 39.24916 15.83531 8164 ft 282 kts 142°
2026-04-21 01:19 39.23413 15.85152 7892 ft 281 kts 142°
2026-04-21 01:20 39.21919 15.86763 7615 ft 280 kts 142°
2026-04-21 01:20 39.20409 15.88334 7331 ft 277 kts 149°
2026-04-21 01:20 39.18648 15.89246 7059 ft 272 kts 167°
2026-04-21 01:20 39.16825 15.89875 6787 ft 271 kts 167°
2026-04-21 01:21 39.15008 15.90507 6513 ft 270 kts 167°
2026-04-21 01:21 39.13202 15.91144 6232 ft 269 kts 167°
2026-04-21 01:21 39.11402 15.91786 5949 ft 268 kts 166°
2026-04-21 01:21 39.09631 15.92423 5670 ft 267 kts 166°
2026-04-21 01:22 39.07847 15.93067 5406 ft 266 kts 166°
2026-04-21 01:22 39.06071 15.93710 5174 ft 263 kts 166°
2026-04-21 01:22 39.04333 15.94339 5051 ft 256 kts 166°
2026-04-21 01:22 39.02643 15.95014 4814 ft 255 kts 162°
2026-04-21 01:23 39.00983 15.95822 4551 ft 254 kts 161°
2026-04-21 01:23 38.99338 15.96636 4342 ft 250 kts 161°
2026-04-21 01:23 38.98268 15.97160 4116 ft 248 kts 161°
2026-04-21 01:23 38.96702 15.97923 3894 ft 233 kts 161°
2026-04-21 01:24 38.95230 15.98636 3710 ft 219 kts 161°
2026-04-21 01:24 38.93909 15.99489 3547 ft 210 kts 136°
2026-04-21 01:24 38.93285 16.01077 3393 ft 197 kts 96°
2026-04-21 01:24 38.93076 16.02801 3121 ft 195 kts 97°
2026-04-21 01:25 38.92862 16.04508 2866 ft 193 kts 97°
2026-04-21 01:25 38.92657 16.06198 2613 ft 190 kts 97°
2026-04-21 01:25 38.92458 16.07872 2357 ft 189 kts 96°
2026-04-21 01:25 38.92263 16.09527 2105 ft 187 kts 97°
2026-04-21 01:26 38.92071 16.11155 1852 ft 180 kts 97°
2026-04-21 01:26 38.91889 16.12686 1645 ft 166 kts 97°
2026-04-21 01:26 38.91725 16.14079 1408 ft 151 kts 97°
2026-04-21 01:26 38.91571 16.15396 1238 ft 149 kts 96°
2026-04-21 01:27 38.91416 16.16714 1060 ft 151 kts 97°
2026-04-21 01:27 38.91255 16.18044 869 ft 150 kts 96°
2026-04-21 01:27 38.91122 16.19362 661 ft 149 kts 95°
2026-04-21 01:27 38.90974 16.20676 414 ft 146 kts 98°
2026-04-21 01:28 38.90807 16.21940 205 ft 144 kts 98°
2026-04-21 01:28 38.90661 16.23203 55 ft 141 kts 96°
2026-04-21 01:28 38.90531 16.24301 27 ft 97 kts 99°
2026-04-21 01:28 38.90500 16.24821 33 ft 24 kts 77°
2026-04-21 01:29 38.90542 16.24951 35 ft 0 kts 63°
2026-04-21 01:29 38.90548 16.24965 37 ft 1 kts 62°
2026-04-21 01:29 38.90550 16.24971 37 ft 3 kts 62°
2026-04-21 01:30 38.90581 16.25021 37 ft 11 kts 33°
2026-04-21 01:30 38.90649 16.25023 34 ft 10 kts 327°
2026-04-21 01:30 38.90690 16.24965 31 ft 9 kts 311°
2026-04-21 01:30 38.90725 16.24922 31 ft 0 kts 317°
2026-04-21 01:31 38.90740 16.24907 31 ft 11 kts 321°
2026-04-21 01:31 38.90762 16.24857 31 ft 5 kts 284°
2026-04-21 01:31 38.90770 16.24810 29 ft 5 kts 281°
2026-04-21 01:31 38.90776 16.24763 31 ft 5 kts 278°
2026-04-21 01:32 38.90782 16.24717 31 ft 5 kts 279°
2026-04-21 01:32 38.90784 16.24676 31 ft 5 kts 277°
2026-04-21 01:32 38.90798 16.24571 29 ft 17 kts 280°
2026-04-21 01:32 38.90828 16.24509 31 ft 6 kts
2026-04-21 01:33 38.90863 16.24520 30 ft 3 kts 22°
2026-04-21 01:33 38.90870 16.24532 30 ft 2 kts 55°
2026-04-21 01:33 38.90872 16.24536 30 ft 0 kts 55°